RH
100 100 100 100 100 100 93 74 98 53 28 45 51 76 47 33 33 32 34 28 30 29 27 27 29 38 34 41 42 51 71 69 65 55 80 87 82 66 70 76 64 86 87 58
98 100 100 100 100 98 87 95 93 51 49 92 71 41 35 36 42 40 38 38 35 26 26 32 29 33 39 39 40 62 60 76 66 50 69 69 65 76 82 81 88 62 82 68
98 99 100 100 100 100 94 97 98 78 51 60 66 53 50 39 38 36 35 36 33 32 31 28 47 38 36 36 35 36 39 83 64 52 68 74 72 80 80 70 77 74 69 61
87 100 100 100 100 100 90 98 98 84 95 91 69 69 99 53 53 42 38 41 44 44 61 43 48 44 49 41 37 45 54 81 76 58 59 72 71 78 78 81 64 77 61 72
94 98 100 100 100 100 94 98 98 98 96 80 69 93 96 93 72 58 50 64 48 69 84 85 94 64 55 52 49 61 69 80 85 81 63 65 79 72 80 79 75 76 79 84
92 98 98 100 100 98 97 100 97 94 96 97 97 93 96 96 96 97 96 70 83 85 86 76 73 58 56 66 73 67 79 88 97 85 68 84 91 76 72 82 96 86 97 82
86 90 97 100 99 91 84 96 92 99 97 96 94 98 97 97 97 95 95 96 96 96 71 56 61 67 62 62 66 66 91 90 89 91 90 96 72 88 71 84 96 100 96 97
84 88 96 100 98 100 92 97 98 98 96 95 94 96 96 97 96 96 92 94 96 90 63 65 60 55 57 64 64 70 71 87 96 98 96 76 85 90 94 80 80 98 97 96
90 100 100 100 98 98 91 99 100 98 96 95 95 95 96 96 96 95 92 88 57 63 70 70 91 73 52 70 70 70 74 88 92 97 100 99 86 85 90 83 97 93 97 98
100 100 100 100 100 94 85 97 98 91 95 94 95 95 95 95 95 94 92 83 55 49 58 70 76 72 67 73 82 90 88 94 97 97 92 83 84 80 84 90 72 85 90 93
100 100 100 99 100 100 95 97 97 82 95 95 94 94 94 93 91 92 81 67 70 68 82 79 81 93 93 86 91 85 78 82 87 89 89 87 86 80 92 79 98 90 88 92
99 100 99 100 99 99 89 94 94 71 86 93 78 71 82 95 96 94 76 87 89 93 97 94 86 84 91 93 91 85 84 84 87 82 82 84 89 76 84 95 92 92 95 85
99 98 98 98 98 96 78 84 70 61 79 84 78 82 60 70 87 87 92 88 96 94 92 99 97 99 98 95 93 99 98 97 92 80 74 92 91 84 84 92 96 82 75 74
91 87 82 77 75 72 56 65 52 49 54 82 85 61 66 51 68 76 81 80 74 71 89 96 97 98 82 99 93 94 93 90 95 95 82 84 84 88 90 78 71 74 64 63
90 90 85 78 69 45 44 53 54 49 64 89 74 47 52 58 50 59 62 66 86 95 94 97 100 98 90 97 94 100 95 85 95 83 73 80 75 77 72 83 70 68 74 76
76 70 66 70 68 47 40 73 44 45 39 84 83 45 43 45 57 61 62 67 82 95 96 100 100 94 96 100 100 79 92 97 78 69 79 87 72 75 72 82 77 75 81 83
84 79 68 40 36 32 77 80 56 53 46 80 85 76 42 45 55 61 70 60 88 92 100 98 100 96 89 100 100 70 82 80 79 84 92 79 73 84 65 72 68 71 77 81
62 57 51 42 30 21 45 52 47 27 42 60 89 77 64 48 63 88 65 92 93 85 99 96 96 95 97 100 82 77 82 86 87 81 81 72 63 68 73 74 82 90 87 82
37 11 8 9 24 54 52 54 21 21 45 90 88 97 99 56 62 91 82 94 92 80 94 93 76 92 99 74 73 74 67 70 58 65 79 81 86 81 78 78 80 85 85 80
8 8 16 51 32 61 36 25 63 68 68 84 95 74 96 76 76 93 90 96 97 100 96 80 93 94 81 76 73 71 69 64 66 71 80 76 80 79 79 81 78 80 84 83
11 27 45 35 41 32 56 84 86 85 96 84 94 87 96 72 97 100 96 99 98 100 90 86 94 94 81 71 78 66 60 64 65 62 66 73 80 89 90 86 80 78 80 84
23 19 34 28 55 72 72 94 81 93 100 93 96 94 83 82 82 97 93 97 92 93 87 92 95 82 70 76 71 83 87 93 93 92 90 89 88 85 89 92 90 87 87 88
14 30 69 72 83 76 93 98 94 100 95 97 97 97 94 83 78 94 94 84 89 85 97 86 80 77 76 76 75 74 72 76 83 87 86 88 90 92 93 91 90 91 93 90
81 74 84 89 100 100 100 100 100 91 95 96 100 100 97 95 90 98 84 85 88 84 85 76 85 75 78 76 68 78 86 79 85 89 91 92 91 91 90 88 85 92 94 90
88 81 100 100 94 96 95 94 96 89 85 97 96 95 91 96 86 88 84 82 93 84 79 76 76 85 77 77 79 84 89 90 91 90 92 91 92 93 92 90 92 97 96 96
82 88 87 84 94 96 97 97 98 76 96 93 94 98 89 91 96 90 91 98 97 91 88 80 79 85 83 85 88 88 90 92 92 92 92 93 93 93 93 94 95 94 95 94
86 97 85 95 97 98 98 96 91 66 94 97 98 87 97 93 95 98 97 97 90 81 79 69 73 90 91 91 91 89 90 90 90 93 93 93 94 95 94 91 85 85 88 90
Wind_Speed
29 31 31 29 25 24 14 7 2 5 11 2 2 3 5 2 4 1 4 3 6 6 7 6 5 7 2 6 7 6 2 3 4 8 3 1 2 5 5 4 5 3 3 10
30 27 34 33 33 32 13 5 2 1 3 5 6 4 5 4 5 6 6 7 6 1 5 3 6 4 1 5 5 6 5 1 2 4 4 4 2 4 3 3 3 12 4 7
29 28 30 37 39 36 15 3 3 2 1 0 3 5 4 6 3 4 4 4 4 4 5 3 3 4 3 4 3 4 6 3 6 8 3 4 3 5 5 7 6 7 20 23
31 31 28 39 43 39 18 2 3 3 5 6 12 5 3 6 6 1 5 3 6 6 7 4 7 6 4 2 6 5 5 5 4 5 5 4 9 7 8 10 17 15 21 15
30 31 33 39 47 34 10 5 4 0 0 1 11 10 7 12 3 7 5 5 7 4 6 4 4 2 4 4 5 6 3 5 2 4 8 11 18 13 9 14 15 18 18 15
30 30 28 36 50 43 6 5 3 2 8 5 6 5 3 5 8 2 4 3 2 2 1 4 2 3 2 2 4 4 2 3 2 8 3 6 11 8 12 2 0 4 5 5
29 31 30 36 57 55 17 7 7 3 1 2 3 4 6 5 5 6 3 4 3 2 4 2 1 2 6 5 5 5 5 4 2 5 3 8 3 3 4 2 4 2 1 2
27 28 27 37 57 37 20 15 5 4 4 4 6 6 7 8 8 4 5 5 3 3 1 2 3 2 2 2 6 3 3 3 2 3 4 5 3 3 2 3 5 4 3 4
20 20 19 34 36 28 23 19 12 6 6 5 6 3 4 2 3 3 3 3 4 1 1 2 3 3 2 2 3 4 4 4 3 2 3 5 3 2 4 3 4 3 4 3
12 21 39 34 29 27 25 14 17 14 5 6 5 4 3 4 3 3 3 1 0 2 1 3 4 3 1 3 4 2 2 2 4 6 6 6 4 2 3 4 5 2 1 4
36 36 34 31 26 19 13 15 9 13 4 9 16 8 8 4 4 2 1 1 2 1 2 1 1 1 2 3 1 3 4 3 3 2 1 8 3 1 4 4 3 4 4 4
37 34 29 26 23 24 30 17 29 37 14 8 21 25 23 13 7 2 3 2 3 2 2 2 1 2 3 2 2 2 2 3 2 6 5 5 6 6 5 5 6 4 4 5
37 35 31 27 23 19 36 39 33 29 12 11 9 8 23 21 16 5 2 2 1 3 3 2 1 4 1 0 2 2 3 2 1 3 3 4 5 5 4 3 4 5 7 8
38 38 38 38 36 32 32 26 16 15 11 4 3 17 18 23 21 22 16 7 7 4 2 2 2 2 2 1 2 2 3 2 2 6 8 7 5 5 4 5 8 10 16 18
36 35 35 35 35 34 36 36 26 11 9 4 4 7 20 19 25 23 20 17 5 3 3 3 1 1 2 2 2 2 4 5 3 5 6 6 9 6 7 9 15 19 17 17
39 37 32 20 10 10 7 4 25 22 14 4 3 3 12 17 16 20 19 12 7 2 3 1 1 2 3 2 2 5 6 4 7 6 6 8 12 11 18 14 20 26 22 24
33 32 29 22 20 23 14 4 5 5 7 3 4 2 5 15 9 6 5 10 3 3 2 2 2 1 2 2 2 7 8 10 8 8 3 14 13 11 18 21 26 28 30 30
33 33 33 32 32 28 33 33 11 10 14 9 3 2 3 15 4 3 8 3 3 4 2 2 1 2 2 2 9 8 7 5 7 12 16 21 25 24 23 25 23 17 17 23
28 28 26 25 17 9 7 8 24 32 13 4 3 3 2 12 4 2 4 2 3 1 2 1 1 2 3 9 7 6 8 6 9 8 8 11 14 18 19 18 17 15 17 21
10 6 9 4 6 9 4 6 6 10 10 4 3 1 3 3 3 3 3 2 1 2 3 1 1 3 6 9 10 9 11 11 9 10 17 17 18 17 19 18 22 22 23 27
6 6 3 5 6 6 7 4 5 4 5 3 2 2 1 5 2 2 1 2 2 3 3 2 3 3 5 6 6 11 18 19 19 21 25 26 21 18 18 18 26 27 28 26
11 17 10 6 10 5 8 3 4 6 1 4 2 3 1 2 2 3 3 1 3 2 1 3 3 4 7 6 10 11 17 19 20 22 23 26 27 28 27 26 26 28 29 29
9 9 6 5 5 15 8 7 4 4 4 3 3 3 1 3 2 2 3 4 3 1 3 3 5 4 6 9 14 17 24 23 23 24 26 27 28 28 26 26 28 28 27 29
5 6 9 5 6 4 1 3 2 3 1 3 1 2 1 2 4 1 3 3 2 4 3 5 3 7 15 18 18 16 18 23 23 24 26 26 26 26 28 27 28 27 25 28
5 5 6 4 2 0 3 2 2 2 2 2 3 2 1 2 3 1 2 5 4 4 4 4 9 18 19 19 19 18 18 21 22 27 25 26 27 25 26 27 26 25 25 25
5 7 4 1 2 3 3 2 2 3 1 1 1 1 3 3 0 4 1 1 4 4 5 13 16 20 20 20 23 27 29 28 28 28 29 28 26 24 26 28 27 26 24 24
6 3 2 2 1 3 2 1 2 6 1 1 2 5 3 3 3 3 3 3 5 13 14 14 19 20 20 28 30 30 30 30 30 29 27 27 28 27 24 18 26 25 26 26
Wind_Direction
253 258 249 234 196 202 175 138 184 173 144 110 241 226 206 159 184 132 227 237 190 209 182 204 224 219 190 148 145 162 232 148 194 215 268 209 131 191 145 158 239 235 147 257
248 248 247 225 199 212 156 152 84 130 139 172 211 227 235 214 158 196 192 216 200 119 194 227 206 114 88 147 148 162 196 217 358 298 358 7 157 234 157 123 83 228 192 256
248 244 247 226 196 199 177 125 167 15 309 268 240 194 231 215 172 198 176 165 133 160 184 205 214 134 204 181 169 171 162 185 196 243 160 139 191 213 203 184 236 247 237 267
252 245 238 223 201 196 183 177 217 172 185 229 215 175 196 197 198 265 180 201 214 158 212 200 237 181 136 194 218 169 161 232 225 251 260 233 264 218 214 214 239 239 266 252
257 246 240 226 197 176 184 157 152 212 197 38 195 192 209 193 170 163 228 218 193 161 169 193 146 182 148 181 213 163 181 238 180 256 249 257 264 256 233 234 251 256 263 274
248 246 238 239 185 182 156 155 125 161 158 164 152 198 189 184 123 71 43 112 88 167 140 91 66 46 18 134 142 199 183 117 74 265 224 340 285 232 235 239 198 155 258 272
257 251 240 224 193 197 178 161 135 150 118 145 197 159 169 154 156 131 92 64 94 55 48 3 360 285 251 249 223 181 159 141 201 281 72 263 283 314 80 165 241 233 324 265
257 253 244 222 198 185 169 147 155 133 97 323 40 26 107 88 72 74 73 38 43 281 265 70 342 286 315 27 37 59 158 156 252 249 211 307 329 309 89 116 271 210 189 279
252 242 243 186 167 171 139 104 101 89 111 14 300 337 32 101 89 89 77 25 336 294 161 137 182 231 181 260 337 4 54 74 164 96 228 257 208 250 156 117 278 252 153 242
196 166 160 134 138 150 136 84 108 88 95 7 340 42 360 349 48 82 81 20 19 353 139 174 209 238 219 209 178 220 69 18 188 231 256 283 185 226 99 83 279 291 228 232
105 103 110 118 134 144 133 64 92 105 98 43 44 38 27 354 6 92 212 138 359 61 90 157 333 92 267 68 246 169 164 160 227 94 34 282 186 100 177 209 266 221 250 242
102 99 103 110 112 118 114 82 89 101 85 121 73 54 42 36 25 330 34 69 58 59 82 39 43 45 30 170 268 306 273 189 203 191 227 224 227 211 237 184 217 245 242 261
97 96 94 99 109 111 116 107 104 88 99 66 46 12 24 42 40 33 118 50 60 38 185 157 182 90 164 328 267 344 313 160 206 20 297 240 253 259 235 222 227 253 253 266
98 98 99 99 99 99 103 89 99 88 102 93 23 47 39 36 53 58 69 93 76 80 57 74 72 97 24 214 193 178 201 100 200 265 277 295 285 235 213 264 279 277 278 278
102 102 103 103 104 105 95 76 62 87 109 119 147 51 32 44 47 54 58 60 54 38 45 47 94 69 55 8 67 277 184 193 154 249 234 214 265 249 271 273 283 283 283 283
99 100 101 97 103 103 81 69 45 61 94 101 85 141 16 22 42 44 43 39 38 71 100 154 346 263 92 95 228 254 229 223 192 250 221 210 251 261 267 270 275 276 271 265
97 93 88 88 81 71 56 81 344 51 80 89 111 82 33 0 22 25 19 39 52 91 107 57 135 309 87 100 221 245 228 226 238 242 5 288 260 260 263 252 266 274 279 275
96 93 89 86 84 80 51 38 66 84 87 54 79 64 44 8 355 358 2 11 30 12 160 12 80 331 74 265 247 257 257 265 283 258 229 246 270 286 280 278 277 274 273 274
95 91 87 79 48 47 20 22 47 61 64 93 61 38 332 341 11 22 352 37 42 251 49 347 62 267 238 227 236 254 249 217 250 259 251 260 258 268 275 277 275 267 274 276
91 56 43 46 26 349 6 23 25 29 26 43 71 342 351 21 349 344 14 9 47 34 268 320 122 260 266 252 236 247 262 251 257 281 293 292 287 285 284 279 276 272 273 277
47 54 71 65 36 37 41 49 44 2 34 24 326 96 313 359 57 290 90 227 312 40 283 81 302 279 251 252 259 260 264 265 264 262 270 273 271 275 278 283 284 283 281 280
85 108 98 46 29 37 70 23 22 42 71 338 25 307 215 305 51 67 329 97 29 263 289 59 281 252 252 272 267 275 274 273 273 276 278 281 282 281 282 283 284 284 285 286
68 55 50 26 329 41 51 359 350 20 344 352 342 327 312 342 31 30 49 49 248 298 43 242 235 260 267 277 310 311 308 300 291 290 288 287 286 286 284 286 286 287 286 285
58 54 32 61 12 41 130 184 216 262 321 316 308 292 24 289 13 164 52 245 49 9 351 242 259 286 312 315 312 308 306 306 301 296 295 292 291 290 290 287 287 288 285 286
65 51 52 53 224 259 232 245 306 294 313 26 357 343 68 328 21 33 310 1 323 217 250 271 303 310 310 309 312 311 308 308 305 303 300 297 296 293 291 290 289 286 284 284
67 47 55 4 60 329 349 341 308 311 302 334 66 6 33 348 100 16 236 115 250 267 283 304 306 305 306 308 310 309 307 306 303 303 301 299 297 296 295 294 290 288 285 281
53 14 355 81 134 211 255 246 282 315 57 22 69 47 258 300 339 314 205 234 271 299 299 299 299 302 305 308 308 308 309 308 306 305 308 308 307 303 298 294 293 291 286 280